Time,TemperatureF,DewpointF,PressureIn,WindDirection,WindDirectionDegrees,WindSpeedMPH,WindSpeedGustMPH,Humidity,HourlyPrecipIn,Conditions,Clouds,dailyrainin,SolarRadiationWatts/m^2,SoftwareType,DateUTC
2013-08-10 00:00:00,67.0,59.0,29.96,WSW,252,6.0,-999.0,75,-99.99,,,-99.99,0.000000,,2013-08-10 04:00:00,
2013-08-10 04:00:00,67.0,58.0,30.01,West,261,6.0,-999.0,73,-99.99,,,-99.99,0.000000,,2013-08-10 08:00:00,
2013-08-10 04:53:00,67.0,58.0,30.01,West,261,6.0,-999.0,73,-99.99,,,-99.99,0.000000,,2013-08-10 08:53:00,
2013-08-10 05:00:00,65.0,60.0,30.02,West,268,6.0,-999.0,84,-99.99,,,-99.99,0.000000,,2013-08-10 09:00:00,
2013-08-10 06:00:00,63.0,60.0,30.03,West,278,6.0,-999.0,90,-99.99,,,-99.99,0.280000,,2013-08-10 10:00:00,
2013-08-10 07:00:00,63.0,60.0,30.05,West,267,5.0,-999.0,88,-99.99,,,-99.99,24.070000,,2013-08-10 11:00:00,
2013-08-10 08:00:00,64.0,56.0,30.06,West,262,5.0,-999.0,76,-99.99,,,-99.99,121.000000,,2013-08-10 12:00:00,
2013-08-10 09:00:00,66.0,56.0,30.07,West,277,6.0,-999.0,71,-99.99,,,-99.99,316.299988,,2013-08-10 13:00:00,
2013-08-10 10:00:00,68.0,59.0,30.07,WNW,293,8.0,-999.0,71,-99.99,,,-99.99,558.700012,,2013-08-10 14:00:00,
2013-08-10 10:53:00,68.0,59.0,30.07,WNW,293,8.0,-999.0,71,-99.99,,,-99.99,558.700012,,2013-08-10 14:53:00,
2013-08-10 12:00:00,68.0,55.0,30.08,WNW,294,9.0,-999.0,63,-99.99,,,-99.99,755.200012,,2013-08-10 16:00:00,
2013-08-10 12:53:00,68.0,55.0,30.08,WNW,294,9.0,-999.0,63,-99.99,,,-99.99,755.200012,,2013-08-10 16:53:00,
2013-08-10 13:00:00,69.0,55.0,30.08,WNW,291,8.0,-999.0,60,-99.99,,,-99.99,724.400024,,2013-08-10 17:00:00,
2013-08-10 13:52:00,69.0,55.0,30.08,WNW,291,8.0,-999.0,60,-99.99,,,-99.99,724.400024,,2013-08-10 17:52:00,
2013-08-10 14:00:00,69.0,56.0,30.09,WNW,292,9.0,-999.0,62,-99.99,,,-99.99,807.000000,,2013-08-10 18:00:00,
2013-08-10 14:52:00,69.0,56.0,30.09,WNW,292,9.0,-999.0,62,-99.99,,,-99.99,807.000000,,2013-08-10 18:52:00,
2013-08-10 15:00:00,71.0,59.0,30.09,WNW,299,8.0,-999.0,64,-99.99,,,-99.99,687.599976,,2013-08-10 19:00:00,
2013-08-10 15:53:00,71.0,59.0,30.09,WNW,299,8.0,-999.0,64,-99.99,,,-99.99,687.599976,,2013-08-10 19:53:00,
2013-08-10 16:00:00,71.0,56.0,30.09,NW,314,7.0,-999.0,59,-99.99,,,-99.99,661.400024,,2013-08-10 20:00:00,
2013-08-10 16:53:00,71.0,56.0,30.09,NW,314,7.0,-999.0,59,-99.99,,,-99.99,661.400024,,2013-08-10 20:53:00,
2013-08-10 17:00:00,70.0,56.0,30.10,NNW,334,8.0,-999.0,61,-99.99,,,-99.99,558.500000,,2013-08-10 21:00:00,
2013-08-10 17:52:00,70.0,56.0,30.10,NNW,334,8.0,-999.0,61,-99.99,,,-99.99,558.500000,,2013-08-10 21:52:00,
2013-08-10 18:00:00,68.0,53.0,30.10,NNW,332,8.0,-999.0,58,-99.99,,,-99.99,410.000000,,2013-08-10 22:00:00,
2013-08-10 18:53:00,68.0,53.0,30.10,NNW,332,8.0,-999.0,58,-99.99,,,-99.99,410.000000,,2013-08-10 22:53:00,
2013-08-10 19:00:00,67.0,50.0,30.10,NW,314,7.0,-999.0,53,-99.99,,,-99.99,253.800003,,2013-08-10 23:00:00,
2013-08-10 19:53:00,67.0,50.0,30.10,NW,314,7.0,-999.0,53,-99.99,,,-99.99,253.800003,,2013-08-10 23:53:00,
2013-08-10 20:00:00,63.0,53.0,30.10,NW,306,3.0,-999.0,70,-99.99,,,-99.99,83.800003,,2013-08-11 00:00:00,
2013-08-10 20:52:00,63.0,53.0,30.10,NW,306,3.0,-999.0,70,-99.99,,,-99.99,83.800003,,2013-08-11 00:52:00,
2013-08-10 21:00:00,58.0,55.0,30.11,WSW,247,2.0,-999.0,90,-99.99,,,-99.99,2.720000,,2013-08-11 01:00:00,
2013-08-10 21:54:00,58.0,55.0,30.11,WSW,247,2.0,-999.0,90,-99.99,,,-99.99,2.720000,,2013-08-11 01:54:00,
2013-08-10 22:00:00,57.0,54.0,30.12,WSW,238,2.0,-999.0,92,-99.99,,,-99.99,0.000000,,2013-08-11 02:00:00,
2013-08-10 22:58:00,57.0,54.0,30.12,WSW,238,2.0,-999.0,92,-99.99,,,-99.99,0.000000,,2013-08-11 02:58:00,
2013-08-10 23:00:00,55.0,54.0,30.13,WSW,238,2.0,-999.0,96,-99.99,,,-99.99,0.000000,,2013-08-11 03:00:00,
2013-08-10 23:58:00,55.0,54.0,30.13,WSW,238,2.0,-999.0,96,-99.99,,,-99.99,0.000000,,2013-08-11 03:58:00,